�N����,����,�~����,�C��,���x,�C��,����,���ϕ���,�ő�u�ԕ���,�ő厞����,���˗�,�I�_���x,�n�����x,�ő啗���N��,DTYPE
"16/10/15","00:10",0.0,11.5,78.4,1020.4,307.2,1.3,2.8,345.7,0.00,7.9,17.1,"00:09:44",1
"16/10/15","00:20",0.0,11.6,79.5,1019.7,317.3,1.5,2.8,344.3,0.00,8.2,17.1,"00:10:18",1
"16/10/15","00:30",0.0,11.5,79.9,1019.7,318.6,1.5,2.5,320.6,0.00,8.2,16.9,"00:21:20",1
"16/10/15","00:40",0.0,11.2,81.5,1019.7,331.0,1.7,2.6,339.6,0.00,8.2,16.9,"00:38:54",1
"16/10/15","00:50",0.0,11.3,81.3,1019.9,329.9,1.8,3.6,341.2,0.00,8.3,16.8,"00:41:04",1
"16/10/15","01:00",0.0,10.9,81.6,1019.7,331.1,2.0,2.6,318.3,0.00,7.9,16.7,"00:59:06",1
"16/10/15","01:10",0.0,10.6,82.4,1019.7,338.0,1.8,2.0,13.4,0.00,7.8,16.9,"01:07:36",1
"16/10/15","01:20",0.0,10.7,83.3,1019.9,328.0,1.5,1.7,347.5,0.00,8.0,16.7,"01:19:26",1
"16/10/15","01:30",0.0,10.8,82.2,1019.7,324.6,1.7,3.2,358.4,0.00,7.9,16.6,"01:28:32",1
"16/10/15","01:40",0.0,10.7,81.1,1020.4,331.6,2.0,2.6,324.9,0.00,7.6,16.6,"01:36:42",1
"16/10/15","01:50",0.0,10.4,81.4,1020.4,312.0,1.4,1.4,301.2,0.00,7.4,16.5,"01:47:32",1
"16/10/15","02:00",0.0,10.1,82.5,1020.1,296.9,1.2,1.2,301.3,0.00,7.3,16.5,"01:55:38",1
"16/10/15","02:10",0.0,10.0,83.3,1020.4,315.1,1.8,2.1,315.1,0.00,7.3,16.2,"02:06:54",1
"16/10/15","02:20",0.0,9.8,83.8,1020.4,284.3,1.2,1.4,293.1,0.00,7.2,16.4,"02:18:16",1
"16/10/15","02:30",0.0,9.8,83.9,1020.4,313.3,1.7,2.1,315.4,0.00,7.3,16.3,"02:25:44",1
"16/10/15","02:40",0.0,9.8,83.7,1020.6,319.7,1.5,1.8,304.8,0.00,7.2,16.4,"02:31:52",1
"16/10/15","02:50",0.0,9.8,83.5,1020.4,330.1,2.5,2.8,337.2,0.00,7.2,16.1,"02:45:26",1
"16/10/15","03:00",0.0,10.0,82.8,1020.6,316.8,1.8,1.9,317.4,0.00,7.3,16.1,"02:54:58",1
"16/10/15","03:10",0.0,10.0,82.7,1020.1,301.4,1.2,1.2,313.6,0.00,7.2,16.0,"03:02:54",1
"16/10/15","03:20",0.0,10.4,81.6,1020.1,300.9,1.5,1.7,276.9,0.00,7.4,16.3,"03:14:46",1
"16/10/15","03:30",0.0,10.6,80.6,1020.1,309.1,1.3,1.4,312.9,0.00,7.4,16.0,"03:21:12",1
"16/10/15","03:40",0.0,10.3,81.6,1020.1,308.2,1.8,2.0,315.2,0.00,7.3,16.1,"03:34:54",1
"16/10/15","03:50",0.0,10.1,82.3,1020.4,310.3,1.1,1.1,304.4,0.00,7.3,16.2,"03:47:00",1
"16/10/15","04:00",0.0,10.1,82.9,1020.1,304.2,1.7,1.8,314.1,0.00,7.4,15.9,"03:56:06",1
"16/10/15","04:10",0.0,10.0,83.2,1020.1,304.2,1.6,1.7,305.1,0.00,7.3,16.0,"04:02:44",1
"16/10/15","04:20",0.0,9.8,84.5,1020.4,292.0,1.2,1.2,294.7,0.00,7.4,15.7,"04:14:38",1
"16/10/15","04:30",0.0,9.7,85.4,1020.1,296.3,1.2,1.2,298.2,0.00,7.4,15.9,"04:23:38",1
"16/10/15","04:40",0.0,9.9,85.8,1020.1,286.3,1.4,1.4,281.9,0.00,7.7,16.1,"04:38:06",1
"16/10/15","04:50",0.0,10.1,85.7,1019.9,304.6,1.5,1.6,308.1,0.00,7.9,15.7,"04:44:22",1
"16/10/15","05:00",0.0,10.0,85.3,1020.4,303.9,1.8,1.9,309.8,0.00,7.7,15.9,"04:59:00",1
"16/10/15","05:10",0.0,10.0,85.8,1020.4,327.5,1.8,1.9,328.5,0.00,7.8,15.9,"05:08:08",1
"16/10/15","05:20",0.0,9.9,86.3,1020.4,304.5,1.6,1.8,311.0,0.00,7.8,15.7,"05:11:48",1
"16/10/15","05:30",0.0,9.8,87.1,1020.4,300.6,1.5,1.7,310.9,0.00,7.8,15.7,"05:28:52",1
"16/10/15","05:40",0.0,9.8,87.3,1020.1,289.8,1.2,1.2,297.5,0.00,7.8,15.6,"05:32:38",1
"16/10/15","05:50",0.0,9.6,87.8,1020.6,287.2,1.2,1.3,298.5,0.00,7.7,15.6,"05:40:02",1
"16/10/15","06:00",0.0,9.5,88.2,1020.6,277.5,1.1,1.2,285.1,0.00,7.7,15.4,"05:50:38",1
"16/10/15","06:10",0.0,9.4,88.5,1020.6,286.0,1.1,1.1,269.5,0.00,7.6,15.6,"06:00:32",1
"16/10/15","06:20",0.0,9.3,89.0,1020.6,290.4,1.0,1.1,305.6,0.00,7.6,15.7,"06:12:54",1
"16/10/15","06:30",0.0,9.3,90.2,1020.8,299.6,1.2,1.3,308.9,0.00,7.8,15.7,"06:26:04",1
"16/10/15","06:40",0.0,9.7,90.6,1020.8,304.5,1.5,2.2,334.1,0.00,8.3,15.6,"06:39:24",1
"16/10/15","06:50",0.0,10.6,87.8,1020.6,312.7,1.5,2.4,352.7,0.00,8.7,15.5,"06:42:18",1
"16/10/15","07:00",0.0,11.4,85.1,1020.8,329.2,1.2,2.1,327.5,0.01,9.0,15.4,"06:50:24",1
"16/10/15","07:10",0.0,11.9,83.7,1020.8,329.9,1.3,2.4,335.5,0.02,9.3,15.5,"07:06:36",1
"16/10/15","07:20",0.0,12.5,81.1,1021.1,335.4,1.3,3.6,339.4,0.04,9.4,15.6,"07:15:36",1
"16/10/15","07:30",0.0,13.2,79.4,1021.3,332.3,1.3,2.7,347.8,0.05,9.8,15.5,"07:28:16",1
"16/10/15","07:40",0.0,13.9,77.6,1021.5,321.8,1.3,2.5,350.6,0.08,10.1,15.8,"07:32:08",1
"16/10/15","07:50",0.0,14.5,74.6,1022.0,321.1,1.2,2.6,351.4,0.10,10.1,15.6,"07:43:36",1
"16/10/15","08:00",0.0,15.2,72.5,1022.3,320.7,1.0,1.7,344.1,0.13,10.3,15.8,"07:56:08",1
"16/10/15","08:10",0.0,15.8,72.5,1022.0,306.4,0.7,1.9,349.9,0.15,10.9,16.0,"08:08:16",1
"16/10/15","08:20",0.0,16.3,69.8,1021.5,316.3,0.7,1.7,352.3,0.18,10.8,16.1,"08:15:52",1
"16/10/15","08:30",0.0,16.6,68.7,1022.3,272.1,0.7,1.7,236.3,0.21,10.9,16.3,"08:27:28",1
"16/10/15","08:40",0.0,17.3,65.5,1021.8,286.3,0.3,1.2,0.2,0.23,10.8,16.6,"08:33:04",1
"16/10/15","08:50",0.0,17.2,67.4,1021.5,254.7,0.7,2.4,231.0,0.26,11.2,16.6,"08:43:52",1
"16/10/15","09:00",0.0,17.8,66.9,1021.5,258.9,0.6,2.2,232.7,0.29,11.6,16.8,"08:57:12",1
"16/10/15","09:10",0.0,18.2,64.0,1021.5,244.3,1.2,2.8,236.1,0.31,11.3,17.1,"09:07:28",1
"16/10/15","09:20",0.0,18.2,65.2,1021.5,240.9,1.2,2.9,225.6,0.33,11.6,17.2,"09:10:16",1
"16/10/15","09:30",0.0,19.0,61.0,1021.3,259.7,0.6,2.2,224.4,0.36,11.4,17.5,"09:28:24",1
"16/10/15","09:40",0.0,19.1,59.8,1021.1,219.0,1.2,3.1,228.9,0.38,11.2,17.8,"09:38:16",1
"16/10/15","09:50",0.0,19.8,56.7,1020.8,221.6,0.7,3.1,209.7,0.40,11.0,18.1,"09:49:36",1
"16/10/15","10:00",0.0,20.0,55.4,1021.1,197.6,1.1,2.6,215.6,0.42,10.8,18.2,"09:58:48",1
"16/10/15","10:10",0.0,20.7,52.0,1020.8,188.4,0.8,1.9,226.7,0.43,10.5,18.5,"10:04:00",1
"16/10/15","10:20",0.0,21.0,50.5,1020.8,123.6,0.7,1.6,129.9,0.44,10.4,18.8,"10:15:20",1
"16/10/15","10:30",0.0,21.8,48.7,1020.6,157.4,0.3,1.3,121.2,0.46,10.6,19.1,"10:21:52",1
"16/10/15","10:40",0.0,22.1,49.1,1020.1,204.3,0.7,2.2,27.0,0.47,11.0,19.2,"10:35:20",1
"16/10/15","10:50",0.0,22.1,48.0,1019.9,191.3,1.0,2.7,206.6,0.48,10.6,19.6,"10:47:04",1
"16/10/15","11:00",0.0,22.2,47.8,1019.9,181.2,1.7,4.2,228.2,0.49,10.7,19.7,"10:55:12",1
"16/10/15","11:10",0.0,22.6,46.7,1019.7,171.0,1.1,2.7,214.4,0.49,10.7,20.2,"11:02:56",1
"16/10/15","11:20",0.0,22.8,46.4,1019.2,177.3,1.1,3.6,217.7,0.50,10.8,20.2,"11:19:44",1
"16/10/15","11:30",0.0,23.2,48.5,1019.0,154.4,1.2,3.4,213.5,0.50,11.8,20.4,"11:20:08",1
"16/10/15","11:40",0.0,23.4,44.2,1018.2,174.0,0.8,2.4,135.8,0.51,10.6,20.8,"11:36:56",1
"16/10/15","11:50",0.0,23.7,43.7,1018.7,168.6,1.1,2.6,183.2,0.50,10.7,20.8,"11:43:12",1
"16/10/15","12:00",0.0,23.9,43.9,1018.5,157.4,1.2,2.8,197.2,0.51,10.9,21.2,"11:53:28",1
"16/10/15","12:10",0.0,24.1,45.5,1018.2,173.0,1.5,4.2,210.5,0.51,11.6,21.4,"12:08:08",1
"16/10/15","12:20",0.0,24.1,44.0,1018.2,157.7,1.6,4.2,135.8,0.51,11.1,21.6,"12:18:48",1
"16/10/15","12:30",0.0,24.6,43.9,1017.8,188.2,1.5,2.6,211.8,0.50,11.6,21.8,"12:22:48",1
"16/10/15","12:40",0.0,24.6,41.5,1018.2,139.4,1.1,2.4,126.2,0.50,10.7,22.0,"12:30:56",1
"16/10/15","12:50",0.0,24.5,41.1,1017.5,180.1,1.8,4.8,210.6,0.49,10.5,22.0,"12:46:24",1
"16/10/15","13:00",0.0,24.5,39.6,1017.3,161.0,1.6,3.1,121.4,0.48,9.9,22.3,"12:56:40",1
"16/10/15","13:10",0.0,24.6,33.3,1017.3,160.3,1.7,3.5,121.5,0.47,7.4,22.4,"13:07:20",1
"16/10/15","13:20",0.0,25.0,37.9,1017.3,173.8,1.5,3.5,183.8,0.46,9.7,22.4,"13:13:44",1
"16/10/15","13:30",0.0,24.9,35.4,1016.8,166.8,1.5,3.6,122.7,0.46,8.6,22.5,"13:23:52",1
"16/10/15","13:40",0.0,25.1,34.0,1017.1,153.4,1.6,3.5,168.2,0.45,8.2,22.7,"13:31:44",1
"16/10/15","13:50",0.0,25.2,35.5,1017.1,150.6,1.3,3.5,191.7,0.40,8.9,22.9,"13:47:44",1
"16/10/15","14:00",0.0,24.8,35.0,1017.1,183.0,1.7,4.1,214.6,0.39,8.4,22.9,"13:52:48",1
"16/10/15","14:10",0.0,24.7,37.2,1017.8,161.2,1.3,3.5,176.7,0.34,9.2,22.9,"14:03:12",1
"16/10/15","14:20",0.0,24.6,36.3,1017.3,161.3,1.7,3.5,181.4,0.38,8.7,22.9,"14:13:04",1
"16/10/15","14:30",0.0,24.8,37.8,1017.3,163.6,1.2,5.4,128.2,0.34,9.5,23.0,"14:22:56",1
"16/10/15","14:40",0.0,24.1,40.4,1017.3,147.7,1.5,3.7,132.7,0.27,9.9,22.8,"14:33:20",1
"16/10/15","14:50",0.0,24.3,41.1,1017.1,157.3,1.1,2.9,162.1,0.26,10.3,22.9,"14:41:12",1
"16/10/15","15:00",0.0,24.2,40.0,1017.5,149.1,1.2,2.6,173.1,0.28,9.8,23.0,"14:55:12",1
"16/10/15","15:10",0.0,24.3,38.4,1017.3,119.4,1.0,3.2,148.2,0.25,9.3,22.9,"15:02:16",1
"16/10/15","15:20",0.0,24.0,37.8,1017.5,136.3,1.0,2.7,115.3,0.22,8.8,22.7,"15:13:52",1
"16/10/15","15:30",0.0,23.9,37.5,1017.3,130.1,1.0,2.6,82.5,0.20,8.6,22.6,"15:28:32",1
"16/10/15","15:40",0.0,23.6,37.4,1017.5,74.4,1.0,2.4,75.1,0.12,8.3,22.3,"15:31:20",1
"16/10/15","15:50",0.0,23.6,35.9,1017.5,39.2,1.0,2.9,4.8,0.03,7.7,22.1,"15:43:36",1
"16/10/15","16:00",0.0,23.4,37.8,1017.8,3.6,1.0,2.6,355.2,0.02,8.2,22.2,"15:51:04",1
"16/10/15","16:10",0.0,23.1,39.8,1018.0,51.4,1.0,2.5,359.7,0.02,8.7,21.8,"16:04:00",1
"16/10/15","16:20",0.0,22.6,41.7,1017.8,69.0,0.8,2.1,104.5,0.01,9.0,21.9,"16:13:52",1
"16/10/15","16:30",0.0,22.4,41.5,1018.0,52.0,0.7,2.4,110.3,0.01,8.7,21.6,"16:21:52",1
"16/10/15","16:40",0.0,22.3,42.4,1018.2,88.1,0.8,2.0,53.7,0.01,9.0,21.4,"16:39:36",1
"16/10/15","16:50",0.0,21.9,44.3,1018.0,77.3,0.8,2.0,82.1,0.00,9.2,21.6,"16:42:00",1
"16/10/15","17:00",0.0,21.4,46.4,1018.2,340.3,0.6,1.4,340.8,0.00,9.5,21.4,"16:55:12",1
"16/10/15","17:10",0.0,20.8,48.5,1018.5,339.4,0.6,2.0,344.2,0.00,9.6,21.2,"17:00:02",1
"16/10/15","17:20",0.0,20.4,50.3,1018.7,342.5,1.0,1.9,354.8,0.00,9.8,21.1,"17:11:36",1
"16/10/15","17:30",0.0,19.9,49.1,1018.7,352.0,1.0,2.4,346.0,0.00,9.0,20.9,"17:29:04",1
"16/10/15","17:40",0.0,19.5,52.0,1018.7,341.5,1.1,2.0,344.0,0.00,9.4,20.9,"17:31:44",1
"16/10/15","17:50",0.0,18.4,56.4,1019.2,310.9,0.8,1.6,336.2,0.00,9.6,20.6,"17:43:20",1
"16/10/15","18:00",0.0,17.1,61.8,1019.2,293.8,0.7,1.0,311.2,0.00,9.8,20.4,"17:50:08",1
"16/10/15","18:10",0.0,16.3,65.7,1019.0,294.1,0.7,1.1,318.5,0.00,9.9,20.3,"18:04:00",1
"16/10/15","18:20",0.0,16.1,68.3,1019.4,303.9,0.8,1.2,324.6,0.00,10.3,20.1,"18:14:56",1
"16/10/15","18:30",0.0,16.1,68.9,1019.2,335.9,1.0,2.6,346.3,0.00,10.4,20.1,"18:26:24",1
"16/10/15","18:40",0.0,15.8,70.4,1019.0,306.9,1.0,1.6,333.4,0.00,10.5,19.9,"18:33:44",1
"16/10/15","18:50",0.0,15.2,73.1,1019.7,288.6,0.7,1.4,276.5,0.00,10.5,19.7,"18:44:40",1
"16/10/15","19:00",0.0,15.1,73.1,1019.9,286.3,0.8,1.7,292.2,0.00,10.4,19.6,"18:56:56",1
"16/10/15","19:10",0.0,15.1,73.0,1019.9,307.3,0.7,1.3,330.7,0.00,10.3,19.7,"19:01:04",1
"16/10/15","19:20",0.0,14.9,74.3,1020.1,301.3,0.8,1.4,313.8,0.00,10.4,19.4,"19:11:36",1
"16/10/15","19:30",0.0,14.5,76.7,1019.9,310.6,1.0,1.4,310.1,0.00,10.5,19.2,"19:29:28",1
"16/10/15","19:40",0.0,14.0,79.6,1020.1,303.1,1.0,1.8,316.3,0.00,10.6,19.2,"19:31:36",1
"16/10/15","19:50",0.0,13.5,81.6,1020.1,297.7,1.0,1.4,314.6,0.00,10.5,19.3,"19:48:46",1
"16/10/15","20:00",0.0,13.6,82.5,1020.8,320.7,1.3,2.0,337.7,0.00,10.7,19.1,"19:53:24",1
"16/10/15","20:10",0.0,13.4,83.1,1020.4,299.0,1.0,1.4,339.7,0.00,10.6,19.0,"20:07:12",1
"16/10/15","20:20",0.0,13.0,84.9,1020.6,292.2,0.8,1.2,308.9,0.00,10.6,18.8,"20:19:40",1
"16/10/15","20:30",0.0,12.6,86.0,1020.6,289.4,1.0,1.4,322.0,0.00,10.4,18.8,"20:27:08",1
"16/10/15","20:40",0.0,12.9,86.6,1020.8,291.0,1.1,1.4,318.9,0.00,10.8,18.7,"20:35:38",1
"16/10/15","20:50",0.0,13.0,86.8,1020.8,311.6,1.2,1.4,327.3,0.00,10.9,18.9,"20:41:46",1
"16/10/15","21:00",0.0,12.7,87.5,1021.1,299.3,0.8,1.0,319.6,0.00,10.7,18.6,"20:52:48",1
"16/10/15","21:10",0.0,12.4,88.6,1020.8,299.4,0.8,1.3,315.0,0.00,10.6,18.2,"21:09:36",1
"16/10/15","21:20",0.0,12.4,89.5,1021.1,299.4,1.0,1.8,311.5,0.00,10.8,18.4,"21:14:46",1
"16/10/15","21:30",0.0,12.6,89.3,1021.1,300.5,0.8,1.4,307.0,0.00,10.9,18.3,"21:22:56",1
"16/10/15","21:40",0.0,12.7,89.4,1021.1,300.9,0.8,1.3,315.0,0.00,11.0,18.1,"21:32:36",1
"16/10/15","21:50",0.0,13.1,89.0,1021.1,321.1,1.1,2.0,344.9,0.00,11.4,18.2,"21:47:18",1
"16/10/15","22:00",0.0,13.0,88.2,1021.3,312.3,1.1,2.0,336.6,0.00,11.1,18.2,"21:50:40",1
"16/10/15","22:10",0.0,12.6,88.8,1021.3,295.2,0.7,1.1,305.3,0.00,10.8,17.9,"22:02:08",1
"16/10/15","22:20",0.0,12.5,90.0,1021.3,318.6,1.1,1.6,315.6,0.00,10.9,18.1,"22:14:50",1
"16/10/15","22:30",0.0,12.4,90.2,1021.1,308.7,1.1,1.4,335.5,0.00,10.9,18.0,"22:20:08",1
"16/10/15","22:40",0.0,12.1,91.1,1021.3,300.4,1.0,1.3,303.4,0.00,10.7,17.8,"22:30:24",1
"16/10/15","22:50",0.0,12.0,92.2,1021.3,310.3,1.0,1.8,331.3,0.00,10.8,17.8,"22:46:00",1
"16/10/15","23:00",0.0,12.1,93.0,1020.8,309.6,1.1,1.7,313.6,0.00,11.0,17.7,"22:59:30",1
"16/10/15","23:10",0.0,12.1,93.3,1021.1,304.0,1.1,1.7,323.8,0.00,11.1,17.8,"23:01:04",1
"16/10/15","23:20",0.0,12.0,93.7,1020.6,305.3,0.5,1.3,326.9,0.00,11.1,17.7,"23:19:36",1
"16/10/15","23:30",0.0,12.1,93.9,1021.3,306.1,1.1,1.6,318.4,0.00,11.2,17.8,"23:22:24",1
"16/10/15","23:40",0.0,12.1,94.4,1021.1,305.6,1.0,1.3,324.0,0.00,11.3,17.5,"23:35:36",1
"16/10/15","23:50",0.0,12.2,94.7,1021.5,318.9,1.2,1.6,328.8,0.00,11.4,17.6,"23:49:16",1
"16/10/15","24:00",0.0,12.3,94.6,1021.5,314.8,1.1,1.4,329.7,0.00,11.5,17.6,"23:52:16",1
